December 20, 2014
Temp
 
51.2 °F
 
Dew Pt.
 
45.9 °F
 
Humidity
 
82%
 
Pressure
 
1021.2 hPa 
  rising slowly
Wind
 
0.0 mph 
    E
Rain
 
0.00 in 
  0.00 in/hr
UV index
 
0.0  
 
Solar rad.
 
0 W/m²
 
Tonight

Partly Cloudy
Partly
Cloudy
Sunday

Mostly Sunny
Mostly
Sunny
Lo 50 °F Hi 70 °F
Statistics - 12/20/2014
Max Temp 58.7 °F  3:00 pm
Min Temp 47.6 °F  6:45 am
Max Dew Pt 49.5 °F  2:00 pm
Min Dew Pt 43.3 °F  4:25 am
Max Pressure 1022.8 hPa  9:20 am
Min Pressure 1019.6 hPa  2:40 pm
Max Wind 6 mph  7:25 pm
Max UV 0.5   9:55 am
Max Solar 457 W/m²  9:55 am
Max Rainfall Rate —   —
Total Precipitation —   
Current Temp 51.2 °F  8:45 pm
Temp 24hr ago 52.4 °F  8:45 pm
Difference -1.2 °F  
Temp Rate -0.3 °F/hr  
Pressure Rate +1.2 hPa/hr  
time temp dew pt pressure uv solar wind wind speed rainfall rate
00:00 49.8 °F 44.8 °F 1021.4 hPa  Calm    
00:05 49.8 °F 44.8 °F 1021.6 hPa  Calm    
00:10 49.8 °F 44.8 °F 1021.6 hPa  Calm    
00:15 49.7 °F 44.7 °F 1021.6 hPa  WNW 1 mph   
00:20 49.7 °F 44.7 °F 1021.7 hPa  Calm    
00:25 49.7 °F 44.7 °F 1021.9 hPa  Calm    
00:30 49.7 °F 44.7 °F 1021.9 hPa  Calm    
00:35 49.6 °F 44.7 °F 1021.9 hPa  Calm    
00:40 49.6 °F 44.7 °F 1022.0 hPa  Calm    
00:45 49.5 °F 44.6 °F 1021.9 hPa  Calm    
00:50 49.5 °F 44.6 °F 1021.8 hPa  Calm    
00:55 49.5 °F 44.9 °F 1021.8 hPa  WNW 1 mph   
01:00 49.5 °F 44.9 °F 1021.7 hPa  Calm    
01:05 49.6 °F 45.0 °F 1021.7 hPa  Calm    
01:10 49.6 °F 45.0 °F 1021.6 hPa  ENE 1 mph   
01:15 49.6 °F 45.0 °F 1021.5 hPa  ENE 1 mph   
01:20 49.5 °F 44.9 °F 1021.4 hPa  Calm    
01:25 49.5 °F 44.9 °F 1021.3 hPa  Calm    
01:30 49.5 °F 44.9 °F 1021.3 hPa  Calm    
01:35 49.5 °F 44.9 °F 1021.2 hPa  Calm    
01:40 49.4 °F 44.8 °F 1021.2 hPa  Calm    
01:45 49.3 °F 44.7 °F 1021.0 hPa  Calm    
01:50 49.2 °F 44.6 °F 1020.8 hPa  Calm    
01:55 49.2 °F 44.6 °F 1020.7 hPa  Calm    
02:00 49.2 °F 44.6 °F 1020.8 hPa  Calm    
02:05 49.1 °F 44.5 °F 1020.8 hPa  W 1 mph   
02:10 49.0 °F 44.4 °F 1020.8 hPa  W 1 mph   
02:15 49.0 °F 44.4 °F 1020.8 hPa  Calm    
02:20 48.9 °F 44.6 °F 1021.0 hPa  WSW 1 mph   
02:25 48.8 °F 44.5 °F 1021.1 hPa  Calm    
02:30 48.8 °F 44.5 °F 1021.1 hPa  Calm    
02:35 48.8 °F 44.2 °F 1021.1 hPa  Calm    
02:40 48.7 °F 44.1 °F 1021.1 hPa  Calm    
02:45 48.6 °F 44.3 °F 1021.1 hPa  NE 1 mph   
02:50 48.7 °F 44.4 °F 1021.2 hPa  NE 1 mph   
02:55 48.6 °F 44.3 °F 1021.2 hPa  W 1 mph   
03:00 48.6 °F 44.3 °F 1021.2 hPa  Calm    
03:05 48.6 °F 44.3 °F 1021.1 hPa  Calm    
03:10 48.5 °F 44.2 °F 1021.1 hPa  Calm    
03:15 48.5 °F 44.2 °F 1021.1 hPa  Calm    
03:20 48.5 °F 44.2 °F 1021.1 hPa  Calm    
03:25 48.5 °F 44.2 °F 1021.1 hPa  Calm    
03:30 48.5 °F 44.2 °F 1021.2 hPa  Calm    
03:35 48.4 °F 44.1 °F 1021.2 hPa  Calm    
03:40 48.4 °F 44.1 °F 1021.1 hPa  Calm    
03:45 48.3 °F 44.0 °F 1021.0 hPa  Calm    
03:50 48.3 °F 44.0 °F 1020.9 hPa  NE 1 mph   
03:55 48.2 °F 43.9 °F 1020.7 hPa  NE 1 mph   
04:00 48.2 °F 43.6 °F 1020.6 hPa  NE 1 mph   
04:05 48.1 °F 43.5 °F 1020.5 hPa  ENE 1 mph   
04:10 48.1 °F 43.8 °F 1020.3 hPa  Calm    
04:15 48.0 °F 43.4 °F 1020.3 hPa  ENE 1 mph   
04:20 47.9 °F 43.3 °F 1020.1 hPa  ENE 1 mph   
04:25 47.9 °F 43.3 °F 1020.1 hPa  Calm    
04:30 47.8 °F 43.5 °F 1020.1 hPa  Calm    
04:35 47.8 °F 43.5 °F 1020.0 hPa  Calm    
04:40 47.8 °F 43.5 °F 1020.0 hPa  Calm    
04:45 47.8 °F 43.5 °F 1020.2 hPa  Calm    
04:50 47.8 °F 43.5 °F 1020.2 hPa  Calm    
04:55 47.8 °F 43.5 °F 1020.1 hPa  Calm    
05:00 47.7 °F 43.4 °F 1020.3 hPa  Calm    
05:05 47.7 °F 43.4 °F 1020.3 hPa  Calm    
05:10 47.7 °F 43.4 °F 1020.3 hPa  Calm    
05:15 47.7 °F 43.4 °F 1020.4 hPa  Calm    
05:20 47.7 °F 43.4 °F 1020.4 hPa  Calm    
05:25 47.7 °F 43.4 °F 1020.6 hPa  Calm    
05:30 47.7 °F 43.4 °F 1020.4 hPa  Calm    
05:35 47.7 °F 43.4 °F 1020.5 hPa  ENE 1 mph   
05:40 47.8 °F 43.5 °F 1020.5 hPa  Calm    
05:45 47.8 °F 43.8 °F 1020.6 hPa  Calm    
05:50 47.8 °F 43.8 °F 1020.6 hPa  ENE 1 mph   
05:55 47.8 °F 43.8 °F 1020.7 hPa  ENE 1 mph   
06:00 47.8 °F 43.5 °F 1020.8 hPa  Calm    
06:05 47.8 °F 43.8 °F 1020.9 hPa  W 1 mph   
06:10 47.7 °F 43.7 °F 1020.8 hPa  Calm    
06:15 47.7 °F 43.7 °F 1020.8 hPa  Calm    
06:20 47.7 °F 43.7 °F 1021.0 hPa  Calm    
06:25 47.7 °F 43.7 °F 1021.0 hPa  Calm    
06:30 47.7 °F 43.7 °F 1021.3 hPa  Calm    
06:35 47.7 °F 43.7 °F 1021.4 hPa  Calm    
06:40 47.7 °F 43.7 °F 1021.5 hPa  Calm    
06:45 47.7 °F 43.7 °F 1021.5 hPa  W 1 mph   
06:50 47.8 °F 43.8 °F 1021.6 hPa  Calm    
06:55 47.8 °F 43.8 °F 1021.5 hPa  Calm    
07:00 47.8 °F 43.8 °F 1021.7 hPa  Calm    
07:05 47.8 °F 43.8 °F 1021.7 hPa  W 1 mph   
07:10 47.8 °F 43.8 °F 1021.7 hPa 5 W/m²  SW 1 mph   
07:15 47.9 °F 43.9 °F 1021.8 hPa 8 W/m²  Calm    
07:20 47.9 °F 43.9 °F 1021.7 hPa 12 W/m²  Calm    
07:25 47.9 °F 43.9 °F 1021.8 hPa 16 W/m²  Calm    
07:30 48.0 °F 44.0 °F 1022.1 hPa 20 W/m²  ENE 2 mph   
07:35 48.1 °F 44.1 °F 1021.9 hPa 29 W/m²  E 2 mph   
07:40 48.1 °F 44.1 °F 1021.9 hPa 43 W/m²  ENE 2 mph   
07:45 48.1 °F 44.1 °F 1021.9 hPa 46 W/m²  E 2 mph   
07:50 48.3 °F 44.6 °F 1021.8 hPa 42 W/m²  E 2 mph   
07:55 48.3 °F 44.6 °F 1022.0 hPa 40 W/m²  E 1 mph   
08:00 48.4 °F 44.7 °F 1022.0 hPa 39 W/m²  Calm    
08:05 48.5 °F 44.8 °F 1022.1 hPa 44 W/m²  Calm    
08:10 48.6 °F 44.9 °F 1022.1 hPa 51 W/m²  Calm    
08:15 48.7 °F 45.0 °F 1022.2 hPa 55 W/m²  Calm    
08:20 48.7 °F 45.0 °F 1022.2 hPa 66 W/m²  Calm    
08:25 48.8 °F 45.1 °F 1022.2 hPa 84 W/m²  Calm    
08:30 48.9 °F 45.2 °F 1022.3 hPa 96 W/m²  Calm    
08:35 49.0 °F 45.3 °F 1022.2 hPa 118 W/m²  Calm    
08:40 49.1 °F 45.4 °F 1022.3 hPa 121 W/m²  Calm    
08:45 49.2 °F 45.5 °F 1022.4 hPa 124 W/m²  Calm    
08:50 49.4 °F 45.7 °F 1022.4 hPa 112 W/m²  Calm    
08:55 49.6 °F 45.9 °F 1022.4 hPa 110 W/m²  Calm    
09:00 49.8 °F 46.1 °F 1022.4 hPa 115 W/m²  Calm    
09:05 50.0 °F 46.3 °F 1022.4 hPa 147 W/m²  Calm    
09:10 50.2 °F 46.2 °F 1022.7 hPa 197 W/m²  WSW 1 mph   
09:15 50.4 °F 46.4 °F 1022.7 hPa 205 W/m²  SW 1 mph   
09:20 50.6 °F 46.6 °F 1022.8 hPa 192 W/m²  E 1 mph   
09:25 50.9 °F 46.9 °F 1022.7 hPa 187 W/m²  Calm    
09:30 51.2 °F 46.8 °F 1022.7 hPa 220 W/m²  E 1 mph   
09:35 51.6 °F 47.2 °F 1022.7 hPa 255 W/m²  E 2 mph   
09:40 52.1 °F 47.4 °F 1022.6 hPa 259 W/m²  E 2 mph   
09:45 52.6 °F 47.3 °F 1022.5 hPa 215 W/m²  E 5 mph   
09:50 53.1 °F 47.1 °F 1022.6 hPa 303 W/m²  E 3 mph   
09:55 54.1 °F 47.1 °F 1022.6 hPa 413 W/m²  E 5 mph   
10:00 54.9 °F 47.1 °F 1022.5 hPa 331 W/m²  SE 3 mph   
10:05 55.4 °F 46.9 °F 1022.5 hPa 286 W/m²  E 3 mph   
10:10 55.8 °F 46.9 °F 1022.5 hPa 270 W/m²  E 5 mph   
10:15 56.1 °F 47.2 °F 1022.5 hPa 227 W/m²  ESE 3 mph   
10:20 56.4 °F 47.9 °F 1022.4 hPa 258 W/m²  E 2 mph   
10:25 56.4 °F 48.2 °F 1022.5 hPa 232 W/m²  ESE 2 mph   
10:30 56.6 °F 48.4 °F 1022.4 hPa 211 W/m²  ENE 1 mph   
10:35 56.7 °F 48.5 °F 1022.4 hPa 183 W/m²  E 1 mph   
10:40 56.7 °F 48.5 °F 1022.4 hPa 152 W/m²  ESE 1 mph   
10:45 56.7 °F 48.5 °F 1022.3 hPa 136 W/m²  ENE 2 mph   
10:50 56.8 °F 49.0 °F 1022.2 hPa 128 W/m²  E 5 mph   
10:55 56.7 °F 48.9 °F 1022.2 hPa 139 W/m²  ESE 1 mph   
11:00 56.7 °F 48.9 °F 1022.2 hPa 163 W/m²  E 3 mph   
11:05 56.7 °F 48.9 °F 1022.2 hPa 170 W/m²  ESE 2 mph   
11:10 56.8 °F 49.0 °F 1022.0 hPa 155 W/m²  ESE 1 mph   
11:15 56.8 °F 49.0 °F 1021.9 hPa 139 W/m²  E 1 mph   
11:20 56.8 °F 49.0 °F 1021.7 hPa 141 W/m²  ESE 1 mph   
11:25 56.9 °F 49.1 °F 1021.6 hPa 140 W/m²  E 3 mph   
11:30 56.9 °F 48.7 °F 1021.5 hPa 128 W/m²  ENE 2 mph   
11:35 57.0 °F 48.8 °F 1021.3 hPa 125 W/m²  E 6 mph   
11:40 57.0 °F 48.8 °F 1021.3 hPa 121 W/m²  SE 2 mph   
11:45 57.1 °F 48.9 °F 1021.5 hPa 137 W/m²  E 2 mph   
11:50 57.1 °F 48.9 °F 1021.3 hPa 152 W/m²  E 3 mph   
11:55 57.2 °F 49.0 °F 1021.4 hPa 145 W/m²  E 1 mph   
12:00 57.3 °F 49.1 °F 1021.5 hPa 135 W/m²  Calm    
12:05 57.3 °F 49.1 °F 1021.3 hPa 135 W/m²  SSE 1 mph   
12:10 57.4 °F 49.2 °F 1021.2 hPa 147 W/m²  ESE 2 mph   
12:15 57.5 °F 48.9 °F 1021.2 hPa 160 W/m²  E 3 mph   
12:20 57.5 °F 48.9 °F 1021.2 hPa 160 W/m²  ESE 1 mph   
12:25 57.6 °F 49.0 °F 1021.0 hPa 140 W/m²  SE 1 mph   
12:30 57.6 °F 49.0 °F 1020.9 hPa 138 W/m²  E 1 mph   
12:35 57.7 °F 49.1 °F 1020.9 hPa 148 W/m²  E 1 mph   
12:40 57.8 °F 48.8 °F 1021.0 hPa 152 W/m²  ESE 1 mph   
12:45 57.8 °F 48.8 °F 1020.9 hPa 150 W/m²  ESE 1 mph   
12:50 57.9 °F 48.9 °F 1021.0 hPa 136 W/m²  Calm    
12:55 58.0 °F 49.0 °F 1020.9 hPa 120 W/m²  SW 2 mph   
13:00 58.0 °F 49.0 °F 1020.8 hPa 105 W/m²  S 2 mph   
13:05 58.1 °F 49.1 °F 1020.6 hPa 107 W/m²  SW 1 mph   
13:10 58.0 °F 48.6 °F 1020.6 hPa 111 W/m²  Calm    
13:15 58.1 °F 48.7 °F 1020.5 hPa 117 W/m²  Calm    
13:20 58.1 °F 48.7 °F 1020.2 hPa 118 W/m²  SSW 2 mph   
13:25 58.1 °F 48.7 °F 1020.2 hPa 103 W/m²  SW 2 mph   
13:30 58.2 °F 48.8 °F 1020.1 hPa 91 W/m²  SW 2 mph   
13:35 58.2 °F 48.8 °F 1020.1 hPa 101 W/m²  SW 1 mph   
13:40 58.2 °F 48.8 °F 1020.1 hPa 120 W/m²  SW 1 mph   
13:45 58.2 °F 48.8 °F 1020.2 hPa 138 W/m²  SW 1 mph   
13:50 58.3 °F 49.3 °F 1020.2 hPa 150 W/m²  Calm    
13:55 58.4 °F 49.0 °F 1020.2 hPa 152 W/m²  SW 1 mph   
14:00 58.5 °F 49.5 °F 1020.1 hPa 133 W/m²  WSW 1 mph   
14:05 58.5 °F 49.1 °F 1020.1 hPa 119 W/m²  Calm    
14:10 58.6 °F 49.2 °F 1020.2 hPa 116 W/m²  SW 1 mph   
14:15 58.7 °F 49.3 °F 1020.2 hPa 110 W/m²  Calm    
14:20 58.7 °F 49.3 °F 1020.2 hPa 96 W/m²  Calm    
14:25 58.7 °F 49.3 °F 1020.0 hPa 87 W/m²  Calm    
14:30 58.7 °F 48.9 °F 1019.7 hPa 80 W/m²  Calm    
14:35 58.6 °F 48.8 °F 1019.6 hPa 86 W/m²  Calm    
14:40 58.6 °F 48.8 °F 1019.6 hPa 101 W/m²  Calm    
14:45 58.6 °F 49.2 °F 1019.8 hPa 107 W/m²  Calm    
14:50 58.7 °F 49.3 °F 1020.1 hPa 97 W/m²  Calm    
14:55 58.7 °F 49.3 °F 1019.9 hPa 94 W/m²  Calm    
15:00 58.6 °F 49.2 °F 1019.8 hPa 101 W/m²  WSW 1 mph   
15:05 58.6 °F 49.2 °F 1019.9 hPa 117 W/m²  SW 1 mph   
15:10 58.6 °F 49.2 °F 1020.0 hPa 131 W/m²  E 1 mph   
15:15 58.5 °F 49.1 °F 1019.9 hPa 123 W/m²  E 1 mph   
15:20 58.6 °F 49.2 °F 1019.9 hPa 90 W/m²  E 1 mph   
15:25 58.5 °F 49.1 °F 1019.8 hPa 75 W/m²  Calm    
15:30 58.5 °F 48.7 °F 1019.8 hPa 66 W/m²  E 1 mph   
15:35 58.4 °F 48.7 °F 1019.9 hPa 56 W/m²  Calm    
15:40 58.4 °F 48.7 °F 1019.9 hPa 45 W/m²  Calm    
15:45 58.3 °F 48.6 °F 1020.0 hPa 41 W/m²  E 1 mph   
15:50 58.2 °F 48.5 °F 1019.9 hPa 38 W/m²  Calm    
15:55 58.2 °F 48.5 °F 1019.9 hPa 36 W/m²  Calm    
16:00 58.1 °F 48.4 °F 1019.9 hPa 31 W/m²  Calm    
16:05 58.1 °F 48.4 °F 1020.0 hPa 21 W/m²  ESE 1 mph   
16:10 58.0 °F 48.6 °F 1020.0 hPa 18 W/m²  E 1 mph   
16:15 57.9 °F 48.6 °F 1020.1 hPa 17 W/m²  Calm    
16:20 57.8 °F 48.5 °F 1020.0 hPa 12 W/m²  Calm    
16:25 57.7 °F 48.4 °F 1020.1 hPa 11 W/m²  E 1 mph   
16:30 57.4 °F 48.4 °F 1020.4 hPa 6 W/m²  Calm    
16:35 56.9 °F 48.0 °F 1020.4 hPa 3 W/m²  E 1 mph   
16:40 56.4 °F 47.9 °F 1020.7 hPa  E 1 mph   
16:45 56.2 °F 47.7 °F 1020.6 hPa  E 1 mph   
16:50 55.7 °F 47.5 °F 1020.6 hPa  ENE 1 mph   
16:55 55.4 °F 47.3 °F 1020.6 hPa  ENE 1 mph   
17:00 55.0 °F 47.2 °F 1020.4 hPa  NE 1 mph   
17:05 54.6 °F 46.8 °F 1020.5 hPa  NNE 1 mph   
17:10 54.3 °F 46.5 °F 1020.6 hPa  NE 2 mph   
17:15 54.1 °F 46.7 °F 1020.8 hPa  NE 2 mph   
17:20 53.9 °F 46.5 °F 1020.9 hPa  NE 1 mph   
17:25 53.7 °F 46.3 °F 1020.9 hPa  NE 1 mph   
17:30 53.6 °F 46.2 °F 1021.0 hPa  NNE 1 mph   
17:35 53.5 °F 46.1 °F 1020.9 hPa  NE 1 mph   
17:40 53.3 °F 46.3 °F 1020.7 hPa  NE 1 mph   
17:45 53.3 °F 46.3 °F 1020.4 hPa  ENE 1 mph   
17:50 53.2 °F 46.2 °F 1020.3 hPa  ENE 2 mph   
17:55 53.1 °F 46.4 °F 1020.3 hPa  ENE 3 mph   
18:00 53.0 °F 46.3 °F 1020.4 hPa  ENE 2 mph   
18:05 53.0 °F 46.3 °F 1020.2 hPa  ENE 4 mph   
18:10 52.9 °F 46.6 °F 1020.4 hPa  E 3 mph   
18:15 52.9 °F 46.6 °F 1020.6 hPa  E 2 mph   
18:20 52.8 °F 46.5 °F 1020.7 hPa  E 5 mph   
18:25 52.7 °F 46.4 °F 1020.9 hPa  ENE 4 mph   
18:30 52.6 °F 46.3 °F 1021.0 hPa  E 5 mph   
18:35 52.6 °F 46.3 °F 1020.7 hPa  ESE 3 mph   
18:40 52.5 °F 46.2 °F 1020.7 hPa  E 5 mph   
18:45 52.4 °F 46.1 °F 1020.7 hPa  ENE 3 mph   
18:50 52.3 °F 46.0 °F 1020.9 hPa  E 2 mph   
18:55 52.2 °F 45.9 °F 1020.9 hPa  E 1 mph   
19:00 52.0 °F 45.7 °F 1021.2 hPa  Calm    
19:05 51.9 °F 45.6 °F 1021.2 hPa  Calm    
19:10 51.9 °F 45.9 °F 1021.3 hPa  ENE 1 mph   
19:15 51.8 °F 45.8 °F 1021.2 hPa  ENE 3 mph   
19:20 51.7 °F 45.7 °F 1021.1 hPa  E 5 mph   
19:25 51.7 °F 45.7 °F 1021.2 hPa  E 6 mph   
19:30 51.6 °F 45.6 °F 1021.1 hPa  ENE 3 mph   
19:35 51.6 °F 45.6 °F 1021.0 hPa  E 2 mph   
19:40 51.5 °F 45.5 °F 1021.1 hPa  ENE 2 mph   
19:45 51.5 °F 45.9 °F 1021.0 hPa  Calm    
19:50 51.5 °F 45.9 °F 1020.8 hPa  E 1 mph   
19:55 51.4 °F 45.8 °F 1021.0 hPa  ESE 1 mph   
20:00 51.4 °F 45.8 °F 1020.9 hPa  E 1 mph   
20:05 51.4 °F 45.8 °F 1021.0 hPa  E 1 mph   
20:10 51.4 °F 45.8 °F 1021.1 hPa  Calm    
20:15 51.3 °F 45.7 °F 1020.9 hPa  E 2 mph   
20:20 51.3 °F 46.0 °F 1020.9 hPa  E 2 mph   
20:25 51.2 °F 45.9 °F 1021.0 hPa  E 3 mph   
20:30 51.2 °F 45.9 °F 1021.1 hPa  ENE 3 mph   
20:35 51.2 °F 45.9 °F 1021.2 hPa  E 2 mph   
20:40 51.2 °F 45.9 °F 1021.4 hPa  ENE 2 mph   
20:45 51.2 °F 45.9 °F 1021.4 hPa  E 2 mph